Lapse_Rate
4.4 4.2 4.4 4.3 4.7 4.9 5.1 5.2 4.7 5.1 5.6 5.6 5.1 4.2 4.4 4.4 4.4 4.7 5.0 4.2 4.7 5.1 6.2 6.9 6.8 6.0 5.7 5.6 5.5 5.6 5.5 5.5 5.6 5.7 6.0 6.2 6.0 5.9 5.9 6.1 6.2 6.1 6.3
4.7 3.9 4.8 4.6 4.6 4.0 4.7 5.2 5.1 4.9 4.7 5.5 6.1 5.2 4.4 4.2 4.2 4.3 4.7 5.1 4.3 4.6 5.3 6.2 6.9 7.2 6.7 6.2 6.1 5.8 5.6 5.6 5.7 5.9 6.1 6.0 5.7 6.1 6.1 6.2 6.4 6.4 6.3
3.9 5.2 4.9 4.7 4.7 4.4 4.3 4.1 4.6 5.0 4.4 4.3 5.2 5.6 5.1 3.9 4.1 4.1 4.4 4.6 5.0 3.8 4.4 5.5 6.3 6.8 6.8 7.0 7.1 7.2 7.1 6.9 6.3 6.5 6.3 6.2 6.0 6.0 6.1 6.2 6.2 6.0 6.0
3.3 3.5 4.6 5.3 5.0 4.7 4.8 4.6 4.1 4.1 4.5 4.2 4.5 4.6 4.8 4.6 4.9 4.6 4.5 4.4 4.4 5.0 4.7 4.1 5.1 6.0 6.6 6.8 6.8 7.4 8.3 7.8 7.6 6.7 6.4 6.2 6.2 6.2 6.3 6.4 6.1 6.1 5.8
3.6 3.5 3.6 4.2 5.2 6.0 5.3 4.8 4.7 4.9 4.5 3.9 3.7 3.8 4.5 4.8 4.9 4.8 5.0 4.4 4.2 4.0 5.0 5.1 4.1 4.8 5.3 6.0 6.5 6.8 6.9 7.0 7.5 7.6 6.8 6.6 6.3 6.4 6.6 6.4 6.1 6.1 5.8
3.4 3.5 3.5 3.7 4.2 5.1 5.9 6.3 5.3 4.8 5.0 5.2 4.8 4.2 3.5 3.4 4.0 5.5 5.5 4.4 3.9 3.8 3.8 4.6 5.3 5.2 4.2 4.8 5.6 6.3 6.5 6.3 6.2 6.4 6.5 6.4 6.5 6.6 6.6 6.3 6.0 6.0 5.8
3.7 3.6 3.5 3.8 4.2 4.8 5.3 6.0 6.9 5.4 4.9 4.7 5.1 4.7 4.3 3.8 3.8 3.4 5.4 5.9 4.1 3.7 4.2 4.5 4.7 5.0 5.4 3.7 4.5 5.3 5.9 6.2 6.0 6.0 6.0 5.8 6.0 6.4 6.7 6.2 6.1 5.9 5.6
3.5 4.0 3.9 4.1 4.6 4.9 5.6 5.9 6.3 6.7 6.2 5.1 5.1 5.3 5.9 4.8 4.2 2.8 3.4 5.0 4.3 3.4 2.8 4.2 5.0 4.7 4.8 5.2 5.0 4.0 4.7 5.6 6.2 6.4 6.4 6.2 5.9 6.1 6.3 6.2 6.2 6.1 6.2
3.1 3.4 4.0 4.1 4.2 4.6 5.0 5.4 5.7 6.2 6.8 6.7 5.1 6.1 5.3 5.8 6.4 5.1 3.6 3.6 4.6 4.3 4.1 2.5 2.8 4.9 4.7 5.6 4.6 3.8 3.5 4.2 5.5 6.4 6.7 6.6 6.4 6.3 6.3 6.5 6.6 6.5 6.4
4.0 4.2 4.4 4.5 4.6 4.6 4.9 5.3 5.9 6.3 6.6 6.7 6.3 5.8 5.9 5.9 5.9 6.5 5.9 5.0 4.7 4.7 4.6 3.9 3.4 2.5 3.0 4.5 4.9 4.7 4.7 3.5 4.5 5.8 6.7 7.0 7.0 6.8 6.8 6.9 6.6 6.8 6.3
5.0 5.5 5.7 5.6 5.1 5.0 4.9 5.3 5.9 6.0 6.5 6.8 7.4 7.0 6.2 5.8 6.0 6.0 6.8 7.1 4.2 5.3 4.4 5.2 4.3 3.8 2.9 3.0 3.5 3.6 3.5 3.1 4.5 5.6 6.6 7.1 7.4 7.3 7.3 7.3 7.2 7.0 6.8
5.3 5.6 6.2 6.3 6.2 5.9 5.7 5.9 5.8 5.9 6.2 6.6 7.3 7.7 7.0 6.7 6.4 5.2 5.5 5.8 6.6 7.3 5.6 5.3 4.0 4.2 3.9 3.1 2.5 2.7 2.7 2.4 3.5 4.7 5.9 7.0 7.1 7.0 7.2 7.3 7.4 6.9 6.8
5.2 5.6 6.4 6.3 6.2 6.0 6.3 6.4 6.3 6.0 6.1 6.4 6.8 7.3 7.9 7.4 7.2 7.4 6.9 7.1 6.6 6.2 5.7 4.6 5.3 4.8 4.6 4.0 3.4 3.0 2.5 2.3 3.5 3.9 4.8 6.3 6.9 6.5 6.6 6.7 6.9 6.7 6.5
6.5 6.4 6.0 5.8 6.2 6.2 6.5 6.6 6.4 6.3 6.6 6.4 6.4 6.6 7.1 7.6 7.2 7.5 7.6 7.6 7.6 8.0 8.0 7.2 6.7 5.4 5.2 4.6 4.1 3.1 3.4 2.5 2.2 3.1 3.8 5.6 5.8 6.0 5.9 5.9 6.2 6.0 5.8
6.3 6.2 5.9 6.1 6.2 6.2 6.5 6.4 6.0 6.0 6.5 6.8 6.5 6.6 6.7 6.8 6.5 6.6 6.8 7.3 7.6 7.7 7.7 8.1 7.1 6.2 5.2 4.4 4.4 4.1 3.6 3.2 2.6 2.3 3.0 3.9 4.8 5.1 4.6 4.9 4.7 5.2 5.2
5.3 5.4 5.9 5.7 6.2 6.4 6.4 6.2 5.9 6.2 6.4 6.6 6.4 6.5 6.6 6.7 6.7 6.6 6.4 6.8 6.9 6.9 7.3 8.7 8.2 7.1 6.4 5.5 4.9 4.6 5.0 3.9 3.1 3.0 2.9 3.2 3.2 3.4 3.7 4.1 4.3 4.7 4.9
4.5 4.6 5.0 5.5 5.8 6.0 6.3 6.2 5.9 5.8 5.6 6.0 5.8 5.9 6.0 6.2 6.5 6.6 6.3 6.6 6.6 7.1 7.2 8.4 8.1 8.4 7.5 6.4 6.4 5.5 5.6 5.1 4.9 2.5 3.1 3.5 3.0 2.5 3.0 3.6 3.7 4.4 4.8
4.3 4.3 4.4 4.8 5.5 5.8 5.8 5.6 5.9 5.8 5.8 5.8 6.1 6.0 6.2 6.0 6.5 6.6 6.5 6.4 6.9 7.3 7.1 7.0 7.7 7.7 7.6 7.5 6.8 6.9 6.1 5.7 6.2 5.5 3.2 3.2 3.4 3.2 3.1 2.9 3.7 3.8 3.6
3.7 4.2 4.2 4.3 4.6 5.0 5.3 5.3 5.2 5.3 5.4 5.5 5.5 5.5 5.8 5.8 5.9 5.9 6.0 6.2 6.4 6.3 6.6 7.0 7.5 8.1 7.4 7.0 5.5 5.1 5.5 5.7 6.0 5.1 4.2 3.6 3.4 3.3 2.8 3.0 3.3 3.1 3.0
3.6 3.8 3.7 3.7 3.7 4.0 3.7 3.4 3.2 3.2 3.4 3.9 4.0 4.3 4.8 5.0 5.4 5.7 5.7 6.0 6.3 6.6 6.8 6.9 6.9 7.3 7.6 7.6 6.9 6.9 6.4 5.1 4.9 4.3 2.9 3.5 3.6 2.9 2.7 2.8 2.9 3.0 2.7
2.9 2.9 3.0 3.3 3.6 3.5 2.9 2.9 3.0 2.9 2.8 2.8 3.0 3.1 3.6 3.0 1.0 2.7 4.4 4.9 5.3 5.5 5.7 6.4 6.6 7.1 7.7 7.8 6.7 6.9 6.6 6.6 6.6 4.1 3.5 2.6 2.6 2.0 2.4 2.2 2.2 2.4 1.9
2.4 2.6 2.5 2.6 2.5 2.7 2.4 2.5 2.4 3.0 3.1 3.0 3.1 3.4 3.7 3.1 3.2 3.1 3.2 2.6 2.7 3.5 4.5 5.6 6.5 7.0 7.8 5.5 4.4 5.1 4.7 4.5 4.8 0.8 2.3 2.8 2.3 2.5 1.6 0.6 0.9 0.7 1.0
2.1 2.0 2.0 2.5 2.5 2.5 2.4 2.3 1.8 2.4 2.0 1.7 1.7 1.9 2.6 2.7 3.0 3.7 3.5 3.0 2.7 2.8 2.6 2.5 3.7 1.9 2.7 1.6 1.1 2.2 2.4 1.9 1.9 -0.0 1.1 2.2 1.6 1.8 1.0 0.7 1.9 1.6 1.1
1.5 1.8 2.8 3.3 3.6 3.5 3.1 2.3 2.0 2.5 2.7 2.5 2.9 2.7 2.6 2.7 3.1 3.8 2.9 2.4 1.6 1.1 0.7 0.7 1.5 1.0 1.3 1.2 1.1 1.2 1.1 2.9 2.1 1.1 1.0 2.4 1.9 2.8 2.3 2.2 3.7 3.9 2.0
1.3 1.3 1.3 1.9 2.3 2.7 3.3 2.9 3.4 3.5 2.7 2.0 2.1 2.4 2.7 2.9 2.8 1.8 1.5 1.6 1.6 1.3 1.4 1.3 1.5 1.6 2.5 2.0 1.7 2.6 1.6 2.4 2.7 1.8 0.6 2.4 1.9 2.1 1.8 2.2 2.1 3.0 3.2
0.4 0.7 0.8 0.3 0.5 0.8 2.0 2.3 2.4 2.5 2.2 1.9 1.8 1.9 2.3 2.6 3.1 3.1 3.4 2.9 2.3 1.9 1.8 1.3 0.9 0.4 0.1 0.2 0.1 -0.6 -0.3 1.0 1.8 2.9 1.3 2.8 2.3 3.2 3.5 3.0 4.1 4.4 4.9
Wind_Speed
5 8 10 10 10 10 11 11 12 12 12 12 12 11 12 13 13 11 10 12 16 15 15 15 14 15 15 14 14 14 13 13 13 13 13 12 13 12 11 11 10 10 9
6 6 7 8 11 12 12 12 11 8 9 13 12 14 13 13 14 14 12 12 15 18 17 18 17 16 16 16 16 15 15 15 15 16 15 16 16 15 14 14 13 12 10
8 9 6 4 9 12 14 13 12 11 6 10 12 13 14 15 15 16 16 14 13 16 21 20 20 19 18 18 17 17 17 18 20 19 19 19 17 16 16 14 14 13 11
9 8 6 5 9 9 12 7 8 7 8 8 9 9 9 13 15 17 16 16 15 13 14 22 22 22 21 21 20 19 18 18 20 19 20 17 14 12 12 11 13 13 12
11 10 8 10 13 9 6 6 6 7 7 7 8 9 9 9 10 14 17 18 18 16 15 16 23 25 23 22 22 21 20 19 18 17 16 16 14 13 12 11 13 13 12
12 11 10 11 12 7 8 7 8 7 7 7 7 9 9 9 8 10 12 17 16 17 17 17 16 19 27 25 25 24 23 22 19 18 15 14 15 14 14 14 14 13 15
13 11 9 9 10 8 10 11 9 9 7 7 5 8 6 7 7 8 11 12 10 15 16 17 18 17 17 24 26 26 26 25 22 20 19 17 16 17 16 16 16 17 18
16 14 10 9 9 8 11 12 11 9 7 6 4 3 4 3 7 10 10 12 13 10 9 17 18 19 18 18 20 25 27 28 26 23 21 20 19 20 19 19 19 20 20
14 14 14 9 9 8 7 10 11 13 9 8 11 6 2 4 3 5 13 11 14 9 10 11 16 20 17 19 18 20 27 27 27 27 25 23 22 21 21 21 22 22 23
15 14 13 11 10 8 9 9 9 10 10 10 6 8 10 3 3 3 4 4 6 9 10 8 9 13 16 18 18 20 21 27 28 28 28 26 25 24 23 23 24 23 23
14 14 14 10 10 8 9 10 10 10 9 9 9 6 7 8 7 7 8 6 2 5 5 8 8 10 13 15 13 15 21 26 28 28 28 28 27 26 25 25 24 23 21
8 10 12 10 10 10 10 9 10 11 10 10 9 10 8 4 5 4 5 7 9 8 6 7 5 6 12 14 16 21 23 21 28 31 29 29 28 28 26 24 22 20 20
5 9 10 9 8 10 10 9 9 10 9 9 11 9 9 9 9 9 8 7 6 3 5 6 7 8 13 16 18 24 23 28 33 28 26 28 27 24 23 22 22 21 19
7 7 6 6 9 9 8 8 7 8 10 9 13 11 8 9 8 9 10 9 9 9 7 11 6 7 11 14 17 23 21 29 29 25 24 28 21 20 18 18 21 21 19
6 7 6 8 8 8 8 8 7 9 10 10 10 11 9 8 8 8 8 8 9 11 12 9 6 8 7 12 15 17 18 21 25 25 26 26 22 22 20 20 18 19 17
8 8 8 6 7 7 7 7 7 9 10 8 7 10 9 7 8 7 8 8 8 10 12 8 8 6 7 6 13 16 18 22 24 25 25 26 25 25 25 26 23 23 19
7 7 7 7 7 7 7 6 6 8 8 9 8 9 9 9 7 6 6 7 8 8 10 11 9 10 12 12 11 13 15 14 16 24 26 27 26 25 24 24 21 20 20
5 5 5 5 5 5 5 6 6 5 6 6 6 4 6 4 7 6 6 9 9 10 10 15 11 10 12 13 11 11 9 14 15 19 25 29 26 25 24 22 20 20 19
8 8 7 6 5 5 4 4 5 6 5 6 6 6 7 7 8 7 8 8 8 7 9 10 11 9 10 10 9 9 9 11 12 19 21 23 24 25 25 23 20 18 20
8 8 8 8 8 7 8 7 6 6 6 6 7 7 8 8 9 9 8 10 9 9 9 9 10 10 9 11 8 10 9 7 8 7 15 17 17 20 17 14 12 13 12
7 7 7 6 6 6 6 7 6 6 6 6 6 6 7 7 7 7 6 9 8 7 7 9 11 11 10 10 9 10 9 8 9 3 5 4 3 2 4 7 7 4 6
6 6 7 6 7 5 8 8 5 3 2 3 5 6 6 6 6 7 5 11 7 4 8 9 9 11 12 7 6 6 4 3 3 5 3 1 2 2 5 9 13 16 15
5 6 6 5 5 6 10 9 8 6 7 7 6 6 5 5 7 2 7 10 12 13 11 5 3 5 4 6 5 4 4 3 3 5 3 3 5 7 7 10 12 13 20
4 4 4 4 4 5 8 6 8 7 7 8 8 7 6 6 7 4 7 8 9 11 11 7 9 8 7 6 5 3 3 2 3 4 5 2 5 4 4 6 16 15 19
3 3 3 5 5 7 10 7 4 5 7 7 7 9 7 7 8 8 7 7 6 5 8 13 14 14 11 18 13 3 4 3 2 3 7 2 3 2 2 0 6 12 13
1 2 2 3 5 5 9 7 2 3 5 5 5 6 11 9 11 9 5 5 5 3 3 4 5 7 9 9 14 8 4 2 1 1 4 2 2 3 2 1 1 4 6
Wind_Direction
255 235 228 218 227 234 233 231 233 238 240 239 237 231 237 234 233 237 241 243 237 241 244 248 232 234 234 235 236 238 237 241 246 252 255 258 263 264 264 266 269 272 274
280 283 245 228 224 208 226 236 230 230 236 238 239 236 235 239 239 234 241 245 241 240 243 244 248 242 241 239 241 242 245 248 250 251 252 249 250 255 261 262 263 265 271
277 277 271 269 236 225 218 218 227 226 228 232 241 239 238 235 237 238 234 236 243 246 241 240 243 246 246 247 247 245 244 243 242 243 247 252 251 253 258 267 271 262 261
272 272 275 269 268 249 221 218 222 219 219 225 240 239 237 240 241 239 237 232 230 237 244 236 237 243 245 244 246 251 252 247 247 251 250 257 250 250 244 261 273 267 250
267 260 258 260 268 270 257 236 228 226 223 223 229 228 236 237 240 244 246 234 229 229 237 244 235 237 242 245 246 248 252 254 259 261 259 248 246 248 249 255 266 265 243
271 267 264 261 259 255 257 249 244 222 232 235 230 235 230 229 233 245 244 246 227 226 229 231 237 240 241 242 246 249 250 253 254 261 263 260 251 248 249 246 251 252 235
277 269 263 265 261 256 253 252 256 247 221 236 244 252 245 230 222 244 251 248 237 221 230 236 233 235 238 237 237 244 249 251 250 250 252 250 250 251 252 239 246 239 232
268 262 255 256 254 253 256 255 251 251 248 197 232 223 261 214 234 226 226 243 233 218 223 242 244 237 236 238 235 232 238 245 249 250 250 248 246 249 250 242 242 244 242
258 256 254 247 247 246 244 250 253 249 250 231 210 233 212 223 177 214 233 231 240 225 228 218 234 246 241 246 243 239 235 238 244 247 247 246 244 245 248 247 246 244 241
261 255 251 249 247 244 243 244 247 252 249 246 226 227 237 268 222 232 191 230 245 245 242 230 224 222 232 245 248 249 246 237 240 243 244 246 245 243 245 246 248 247 244
263 259 254 250 245 240 238 236 244 243 248 252 250 227 234 240 248 244 267 247 216 237 242 248 237 232 223 222 236 254 253 245 249 250 246 244 244 244 244 247 248 249 246
263 251 251 248 248 243 238 237 237 243 247 251 256 255 240 221 208 219 246 264 261 263 238 229 217 229 226 225 222 231 247 259 259 257 250 245 243 241 241 245 254 255 248
253 252 251 250 244 241 239 239 240 239 237 241 245 249 253 251 246 242 244 248 258 232 242 234 235 237 238 229 223 221 233 235 248 256 258 249 248 242 238 243 253 259 256
266 270 262 251 255 246 237 238 243 245 243 234 238 237 245 251 249 248 249 257 267 262 259 258 241 234 238 233 231 220 222 226 228 240 247 248 240 241 241 244 248 251 254
277 269 258 271 271 268 258 247 242 246 246 240 237 233 235 237 234 240 243 241 251 266 267 263 255 229 238 236 233 228 228 231 226 224 225 228 228 232 235 241 247 257 259
289 286 276 259 266 265 266 265 260 252 250 251 248 246 247 247 243 237 232 234 237 252 269 266 262 268 260 251 246 236 236 229 226 224 223 222 222 230 231 237 236 240 245
307 302 295 290 277 267 258 249 264 263 256 252 256 253 257 254 251 242 239 244 247 244 261 269 264 265 262 268 263 247 245 241 243 228 226 229 229 226 229 233 228 237 245
321 317 315 304 299 289 285 262 259 251 235 237 247 240 254 258 257 254 250 246 244 249 249 266 266 267 265 265 252 246 244 245 247 244 228 227 227 225 222 222 222 228 236
15 17 9 0 353 345 338 329 301 299 289 278 279 269 267 276 272 268 264 267 267 267 269 272 275 265 263 262 249 242 246 243 247 250 243 231 224 220 215 214 215 222 231
13 15 21 27 24 43 32 11 354 341 330 320 315 304 297 288 282 282 274 269 271 272 272 271 277 280 272 270 269 266 253 228 244 239 241 239 226 219 215 215 207 219 227
20 21 26 31 30 36 16 357 343 332 328 331 334 332 327 315 312 299 290 287 286 280 276 276 277 278 277 280 263 270 264 268 256 259 241 217 242 225 238 154 133 140 100
25 30 31 35 38 28 359 5 360 341 334 323 341 343 337 329 339 336 20 51 35 316 287 283 278 276 279 333 338 299 288 283 262 34 306 349 308 33 64 73 69 80 72
24 31 27 28 36 16 12 19 31 56 59 45 32 21 23 15 5 42 60 53 48 43 40 346 8 10 347 344 318 324 356 54 20 352 313 52 355 52 37 27 38 87 89
30 33 33 31 39 19 20 50 83 94 88 71 55 44 47 29 28 51 93 82 63 52 51 57 44 45 20 358 6 350 15 9 85 33 355 70 12 37 23 23 47 59 65
20 34 22 23 26 18 20 36 79 91 91 80 59 46 48 50 50 91 110 104 94 82 64 66 64 59 34 36 27 28 37 35 8 13 12 28 26 1 355 357 40 50 33
334 0 27 20 23 17 16 29 59 116 108 102 77 62 53 60 60 61 88 113 107 71 61 49 39 32 38 33 38 41 6 34 100 100 7 18 36 356 350 341 355 3 13